Location: Saint Louis
(38.6272°N, 90.1978°W)
Time: 23:10:35
(UTC-05:00)

ISS - Pass Details

Date: 27 April 2013
Orbit: 402 x 403 km, 51.6° (Epoch: 26 June)

Event Time Altitude Azimuth Distance (km) Brightness Sun altitude
Rises 20:24:13 0° 288° (WNW) 2,331 2.9 -7.2°
Reaches altitude 10° 20:27:25 10° 253° (WSW) 1,475 0.3 -7.7°
Maximum altitude 20:28:37 12° 232° (SW) 1,384 -0.3 -7.9°
Drops below altitude 10° 20:29:50 10° 210° (SSW) 1,479 -0.4 -8.1°
Enters shadow 20:33:38 -2° 173° (S) 2,544 0.4 -8.8°
